Location: Hurstbourne Priors
(51.2000°N, 1.3667°W)
Time: 18:33:27
(UTC+00:00)

Terra - Pass Details

Date: 09 April 2020
Orbit: 701 x 703 km, 98.2° (Epoch: 25 May)

Event Time Altitude Azimuth Distance (km) Brightness Sun altitude
Exits shadow 20:29:33 17° 87° (E) 1,770 3.4 -14.7°
Maximum altitude 20:31:22 20° 58° (ENE) 1,589 3.4 -14.9°
Drops below altitude 10° 20:34:50 10° 11° (N) 2,185 4.7 -15.4°
Sets 20:37:35 0° 356° (N) 3,108 5.8 -15.7°
